BAW333 LFMN-EGLL

Flight info

Callsign BAW333
Flight time 1h 39m
Altitude 34000
Route BADOD DCT NEDRU DCT LTP DCT BULOL DCT IDAVO DCT BAGBI DCT SIZZA DCT LAULY DCT BRY DCT CLM DCT KOPOR DCT ABNUR DCT DIMAL DCT ALESO
Aircraft A320/M-SDE3FGHIRWY/LB1

Departure

Time 2026-05-07 18:48
Airport Nice-Côte d'Azur Airport (LFMN)

Arrival

Time 2026-05-07 20:27
Airport London Heathrow Airport (EGLL)
Time Latitude Longitude Altitude Speed Heading
2026-05-07 18:24 43.66429 7.21327 21 ft 0 kts 350°
2026-05-07 18:39 43.66404 7.21332 21 ft 4 kts 350°
2026-05-07 18:39 43.66379 7.21338 21 ft 2 kts 350°
2026-05-07 18:39 43.66357 7.21341 25 ft 4 kts 21°
2026-05-07 18:40 43.66341 7.21319 21 ft 4 kts 75°
2026-05-07 18:40 43.66336 7.21286 21 ft 3 kts 80°
2026-05-07 18:40 43.66336 7.21282 21 ft 0 kts 80°
2026-05-07 18:42 43.66336 7.21285 21 ft 2 kts 80°
2026-05-07 18:42 43.66337 7.21345 21 ft 9 kts 110°
2026-05-07 18:42 43.66276 7.21331 21 ft 13 kts 224°
2026-05-07 18:43 43.66208 7.21236 21 ft 15 kts 225°
2026-05-07 18:43 43.66129 7.21128 21 ft 17 kts 224°
2026-05-07 18:43 43.66032 7.21051 21 ft 17 kts 174°
2026-05-07 18:43 43.65928 7.21096 21 ft 14 kts 187°
2026-05-07 18:44 43.65847 7.20997 21 ft 17 kts 225°
2026-05-07 18:44 43.65758 7.20876 21 ft 19 kts 225°
2026-05-07 18:44 43.65662 7.20744 21 ft 20 kts 225°
2026-05-07 18:44 43.65560 7.20605 21 ft 21 kts 224°
2026-05-07 18:45 43.65450 7.20453 21 ft 22 kts 225°
2026-05-07 18:45 43.65340 7.20304 21 ft 20 kts 219°
2026-05-07 18:45 43.65225 7.20363 20 ft 19 kts 139°
2026-05-07 18:45 43.65161 7.20448 22 ft 20 kts 136°
2026-05-07 18:46 43.65078 7.20509 21 ft 13 kts 180°
2026-05-07 18:46 43.64991 7.20462 22 ft 15 kts 223°
2026-05-07 18:46 43.64915 7.20358 22 ft 16 kts 225°
2026-05-07 18:46 43.64829 7.20238 21 ft 19 kts 225°
2026-05-07 18:47 43.64727 7.20187 22 ft 16 kts 152°
2026-05-07 18:47 43.64702 7.20288 23 ft 11 kts 67°
2026-05-07 18:47 43.64717 7.20309 25 ft 0 kts 43°
2026-05-07 18:47 43.64733 7.20329 23 ft 18 kts 44°
2026-05-07 18:48 43.65000 7.20699 23 ft 88 kts 45°
2026-05-07 18:48 43.65566 7.21479 24 ft 139 kts 45°
2026-05-07 18:48 43.66346 7.22558 160 ft 169 kts 48°
2026-05-07 18:48 43.66900 7.23933 828 ft 166 kts 82°
2026-05-07 18:49 43.66684 7.25505 1329 ft 175 kts 124°
2026-05-07 18:49 43.65740 7.26614 1764 ft 186 kts 147°
2026-05-07 18:49 43.64647 7.27652 2221 ft 194 kts 139°
2026-05-07 18:49 43.63637 7.28971 2584 ft 209 kts 135°
2026-05-07 18:50 43.62575 7.30414 3061 ft 220 kts 135°
2026-05-07 18:50 43.61331 7.31635 3769 ft 223 kts 164°
2026-05-07 18:50 43.59797 7.31605 4487 ft 225 kts 202°
2026-05-07 18:50 43.58440 7.30533 5238 ft 226 kts 212°
2026-05-07 18:51 43.57105 7.29374 6000 ft 228 kts 212°
2026-05-07 18:51 43.55789 7.28125 6710 ft 232 kts 225°
2026-05-07 18:51 43.54958 7.26234 7377 ft 236 kts 256°
2026-05-07 18:51 43.54937 7.23977 8060 ft 240 kts 286°
2026-05-07 18:52 43.55742 7.21964 8760 ft 242 kts 309°
2026-05-07 18:52 43.56797 7.20137 9495 ft 245 kts 309°
2026-05-07 18:52 43.57857 7.18298 10181 ft 248 kts 308°
2026-05-07 18:52 43.58936 7.16412 10854 ft 250 kts 308°
2026-05-07 18:53 43.60015 7.14517 11548 ft 252 kts 307°
2026-05-07 18:53 43.61138 7.12651 12233 ft 255 kts 315°
2026-05-07 18:53 43.62508 7.11014 12548 ft 275 kts 319°
2026-05-07 18:53 43.64049 7.09254 12729 ft 299 kts 319°
2026-05-07 18:54 43.65714 7.07367 12874 ft 321 kts 319°
2026-05-07 18:54 43.67504 7.05338 13006 ft 343 kts 319°
2026-05-07 18:54 43.69383 7.03203 13380 ft 354 kts 319°
2026-05-07 18:54 43.71298 7.01021 13963 ft 359 kts 319°
2026-05-07 18:55 43.73236 6.98812 14542 ft 363 kts 319°
2026-05-07 18:55 43.75186 6.96580 15120 ft 366 kts 319°
2026-05-07 18:55 43.77151 6.94326 15690 ft 368 kts 318°
2026-05-07 18:55 43.79127 6.92058 16245 ft 371 kts 318°
2026-05-07 18:56 43.81123 6.89768 16816 ft 374 kts 318°
2026-05-07 18:56 43.83133 6.87459 17363 ft 377 kts 318°
2026-05-07 18:56 43.85158 6.85128 17913 ft 380 kts 318°
2026-05-07 18:56 43.87199 6.82778 18424 ft 383 kts 318°
2026-05-07 18:57 43.89256 6.80404 18932 ft 385 kts 318°
2026-05-07 18:57 43.91314 6.78024 19453 ft 388 kts 317°
2026-05-07 18:57 43.93400 6.75624 19973 ft 390 kts 319°
2026-05-07 18:57 43.95682 6.73538 20466 ft 395 kts 327°
2026-05-07 18:58 43.98077 6.71640 20960 ft 397 kts 327°
2026-05-07 18:58 44.00475 6.69723 21453 ft 399 kts 327°
2026-05-07 18:58 44.02856 6.67808 21912 ft 402 kts 326°
2026-05-07 18:58 44.05314 6.65827 22362 ft 404 kts 326°
2026-05-07 18:59 44.07724 6.63884 22818 ft 407 kts 326°
2026-05-07 18:59 44.10183 6.61902 23274 ft 409 kts 326°
2026-05-07 18:59 44.12656 6.59912 23701 ft 411 kts 326°
2026-05-07 18:59 44.15140 6.57913 24059 ft 413 kts 326°
2026-05-07 19:00 44.17636 6.55902 24444 ft 415 kts 326°
2026-05-07 19:00 44.20135 6.53887 24824 ft 416 kts 325°
2026-05-07 19:00 44.22645 6.51859 25201 ft 418 kts 325°
2026-05-07 19:00 44.25164 6.49817 25584 ft 419 kts 325°
2026-05-07 19:01 44.27693 6.47767 25944 ft 422 kts 325°
2026-05-07 19:01 44.30229 6.45709 26328 ft 424 kts 325°
2026-05-07 19:01 44.32797 6.43626 26684 ft 426 kts 325°
2026-05-07 19:01 44.35367 6.41537 27064 ft 428 kts 325°
2026-05-07 19:02 44.37909 6.39466 27452 ft 430 kts 325°
2026-05-07 19:02 44.40498 6.37355 27856 ft 431 kts 325°
2026-05-07 19:02 44.43092 6.35235 28237 ft 433 kts 324°
2026-05-07 19:02 44.45708 6.33093 28581 ft 436 kts 325°
2026-05-07 19:03 44.48338 6.30938 28878 ft 439 kts 325°
2026-05-07 19:03 44.50979 6.28777 29330 ft 438 kts 325°
2026-05-07 19:03 44.53610 6.26631 29822 ft 437 kts 325°
2026-05-07 19:03 44.56235 6.24490 30253 ft 435 kts 324°
2026-05-07 19:04 44.58813 6.22384 30700 ft 434 kts 324°
2026-05-07 19:04 44.61417 6.20246 31134 ft 432 kts 324°
2026-05-07 19:04 44.63997 6.18121 31559 ft 430 kts 323°
2026-05-07 19:04 44.66580 6.15994 32017 ft 428 kts 323°
2026-05-07 19:05 44.69147 6.13880 32469 ft 427 kts 323°
2026-05-07 19:05 44.71698 6.11773 32941 ft 425 kts 323°
2026-05-07 19:05 44.74247 6.09661 33425 ft 423 kts 322°
2026-05-07 19:05 44.76775 6.07565 33839 ft 422 kts 322°
2026-05-07 19:06 44.79311 6.05463 33962 ft 425 kts 322°
2026-05-07 19:06 44.87059 5.99029 33980 ft 434 kts 323°
2026-05-07 19:07 44.92268 5.94705 33980 ft 434 kts 322°
2026-05-07 19:07 44.97480 5.90371 33985 ft 435 kts 323°
2026-05-07 19:08 45.02691 5.86034 33989 ft 434 kts 323°
2026-05-07 19:08 45.07860 5.81700 33998 ft 435 kts 323°
2026-05-07 19:09 45.12974 5.77156 33984 ft 434 kts 321°
2026-05-07 19:09 45.18021 5.72442 33989 ft 434 kts 321°
2026-05-07 19:10 45.23078 5.67732 33980 ft 435 kts 321°
2026-05-07 19:10 45.28160 5.63050 33990 ft 436 kts 322°
2026-05-07 19:11 45.33259 5.58362 33996 ft 437 kts 322°
2026-05-07 19:11 45.38371 5.53665 33998 ft 437 kts 322°
2026-05-07 19:12 45.43442 5.48977 34007 ft 437 kts 322°
2026-05-07 19:12 45.48560 5.44282 34020 ft 439 kts 326°
2026-05-07 19:13 45.54154 5.40645 34008 ft 443 kts 332°
2026-05-07 19:13 45.59826 5.37153 34002 ft 443 kts 332°
2026-05-07 19:14 45.65486 5.33649 34012 ft 444 kts 332°
2026-05-07 19:14 45.71153 5.30122 34016 ft 444 kts 332°
2026-05-07 19:15 45.76807 5.26592 34017 ft 444 kts 332°
2026-05-07 19:15 45.82472 5.23058 34015 ft 443 kts 332°
2026-05-07 19:16 45.88132 5.19530 34026 ft 443 kts 332°
2026-05-07 19:16 45.93779 5.15999 34022 ft 442 kts 332°
2026-05-07 19:17 45.99424 5.12451 34023 ft 442 kts 332°
2026-05-07 19:17 46.05024 5.08915 34016 ft 442 kts 332°
2026-05-07 19:18 46.10657 5.05349 34024 ft 442 kts 332°
2026-05-07 19:18 46.16281 5.01770 34021 ft 441 kts 332°
2026-05-07 19:19 46.21898 4.98181 34015 ft 441 kts 332°
2026-05-07 19:19 46.27472 4.94601 34033 ft 441 kts 332°
2026-05-07 19:20 46.33084 4.91009 34032 ft 441 kts 332°
2026-05-07 19:20 46.38688 4.87420 34029 ft 440 kts 332°
2026-05-07 19:21 46.44286 4.83808 34028 ft 440 kts 332°
2026-05-07 19:21 46.49879 4.80197 34044 ft 440 kts 331°
2026-05-07 19:22 46.54299 4.77340 34040 ft 440 kts 331°
2026-05-07 19:22 46.59883 4.73713 34034 ft 439 kts 331°
2026-05-07 19:23 46.65468 4.70088 34036 ft 439 kts 331°
2026-05-07 19:23 46.71050 4.66465 34035 ft 439 kts 331°
2026-05-07 19:24 46.76630 4.62827 34039 ft 439 kts 331°
2026-05-07 19:24 46.82197 4.59180 34036 ft 439 kts 331°
2026-05-07 19:25 46.87777 4.55546 34039 ft 439 kts 331°
2026-05-07 19:25 46.93365 4.51926 34048 ft 439 kts 331°
2026-05-07 19:26 46.98905 4.48316 34052 ft 438 kts 331°
2026-05-07 19:26 47.03988 4.44984 34047 ft 439 kts 331°
2026-05-07 19:27 47.09567 4.41324 34058 ft 439 kts 331°
2026-05-07 19:27 47.15092 4.37485 34053 ft 437 kts 328°
2026-05-07 19:28 47.20437 4.33263 34061 ft 436 kts 326°
2026-05-07 19:28 47.25759 4.28967 34052 ft 436 kts 327°
2026-05-07 19:29 47.31107 4.24747 34074 ft 436 kts 327°
2026-05-07 19:29 47.36441 4.20594 34065 ft 436 kts 327°
2026-05-07 19:30 47.41806 4.16405 34062 ft 435 kts 327°
2026-05-07 19:30 47.47147 4.12194 34059 ft 435 kts 327°
2026-05-07 19:31 47.52492 4.07971 34076 ft 435 kts 327°
2026-05-07 19:31 47.57838 4.03742 34071 ft 435 kts 327°
2026-05-07 19:32 47.63183 3.99499 34065 ft 435 kts 327°
2026-05-07 19:32 47.68534 3.95249 34060 ft 435 kts 327°
2026-05-07 19:33 47.73835 3.91025 34070 ft 435 kts 327°
2026-05-07 19:33 47.79197 3.86739 34063 ft 435 kts 327°
2026-05-07 19:34 47.84496 3.82498 34063 ft 435 kts 327°
2026-05-07 19:34 47.89832 3.78231 34057 ft 435 kts 327°
2026-05-07 19:35 47.95171 3.73940 34060 ft 435 kts 327°
2026-05-07 19:35 48.00504 3.69631 34065 ft 435 kts 327°
2026-05-07 19:36 48.05842 3.65323 34060 ft 436 kts 328°
2026-05-07 19:36 48.11173 3.61011 34066 ft 435 kts 327°
2026-05-07 19:37 48.16498 3.56686 34071 ft 435 kts 327°
2026-05-07 19:37 48.21817 3.52356 34058 ft 435 kts 328°
2026-05-07 19:38 48.27113 3.48039 34054 ft 435 kts 328°
2026-05-07 19:38 48.32436 3.43689 34060 ft 435 kts 328°
2026-05-07 19:39 48.37767 3.39319 34058 ft 436 kts 328°
2026-05-07 19:39 48.43084 3.34945 34050 ft 436 kts 328°
2026-05-07 19:40 48.48424 3.30554 34046 ft 436 kts 328°
2026-05-07 19:40 48.53730 3.26182 34042 ft 437 kts 328°
2026-05-07 19:41 48.59056 3.21771 34044 ft 437 kts 328°
2026-05-07 19:41 48.64396 3.17348 34057 ft 437 kts 328°
2026-05-07 19:42 48.69723 3.12920 34053 ft 437 kts 328°
2026-05-07 19:42 48.75065 3.08449 34055 ft 438 kts 328°
2026-05-07 19:43 48.80401 3.03983 34073 ft 438 kts 328°
2026-05-07 19:43 48.85701 2.99555 34069 ft 438 kts 328°
2026-05-07 19:44 48.91040 2.95078 34070 ft 438 kts 328°
2026-05-07 19:44 48.96381 2.90579 34074 ft 439 kts 328°
2026-05-07 19:45 49.01732 2.86068 34073 ft 439 kts 328°
2026-05-07 19:45 49.07076 2.81541 34085 ft 439 kts 328°
2026-05-07 19:46 49.12412 2.77009 34078 ft 439 kts 328°
2026-05-07 19:46 49.17713 2.72502 34075 ft 438 kts 328°
2026-05-07 19:47 49.23046 2.67963 34078 ft 438 kts 328°
2026-05-07 19:47 49.28380 2.63415 34080 ft 439 kts 328°
2026-05-07 19:48 49.33656 2.58898 34080 ft 439 kts 328°
2026-05-07 19:48 49.38991 2.54319 34075 ft 439 kts 328°
2026-05-07 19:49 49.44327 2.49725 34070 ft 439 kts 327°
2026-05-07 19:49 49.49660 2.45117 34070 ft 440 kts 328°
2026-05-07 19:50 49.54997 2.40516 34079 ft 439 kts 328°
2026-05-07 19:50 49.60318 2.35907 34077 ft 439 kts 327°
2026-05-07 19:51 49.65631 2.31279 34075 ft 438 kts 327°
2026-05-07 19:51 49.70906 2.26673 34073 ft 438 kts 327°
2026-05-07 19:52 49.76214 2.22029 34086 ft 438 kts 327°
2026-05-07 19:52 49.81523 2.17376 34085 ft 438 kts 327°
2026-05-07 19:53 49.86838 2.12713 34077 ft 438 kts 327°
2026-05-07 19:53 49.92145 2.08045 34075 ft 438 kts 327°
2026-05-07 19:54 49.97456 2.03347 34084 ft 438 kts 327°
2026-05-07 19:54 50.02758 1.98660 34082 ft 438 kts 327°
2026-05-07 19:55 50.08034 1.93984 34082 ft 438 kts 327°
2026-05-07 19:55 50.13334 1.89260 34082 ft 438 kts 327°
2026-05-07 19:56 50.17591 1.85005 34082 ft 435 kts 317°
2026-05-07 19:56 50.21963 1.78542 34095 ft 433 kts 313°
2026-05-07 19:57 50.24116 1.75254 33785 ft 433 kts 313°
2026-05-07 19:57 50.26274 1.71958 33314 ft 433 kts 313°
2026-05-07 19:57 50.28425 1.68670 32854 ft 432 kts 313°
2026-05-07 19:57 50.30566 1.65394 32401 ft 430 kts 313°
2026-05-07 19:58 50.32704 1.62124 31951 ft 427 kts 313°
2026-05-07 19:58 50.34827 1.58875 31511 ft 425 kts 313°
2026-05-07 19:58 50.36933 1.55651 31071 ft 422 kts 313°
2026-05-07 19:58 50.39026 1.52441 30650 ft 420 kts 313°
2026-05-07 19:59 50.41101 1.49248 30243 ft 418 kts 313°
2026-05-07 19:59 50.43167 1.46064 29788 ft 414 kts 313°
2026-05-07 19:59 50.45214 1.42903 29293 ft 411 kts 313°
2026-05-07 19:59 50.47215 1.39804 28817 ft 408 kts 313°
2026-05-07 20:00 50.49228 1.36684 28351 ft 406 kts 312°
2026-05-07 20:00 50.51202 1.33520 27884 ft 402 kts 311°
2026-05-07 20:00 50.53106 1.30324 27447 ft 399 kts 310°
2026-05-07 20:00 50.54972 1.27113 27005 ft 396 kts 309°
2026-05-07 20:01 50.56818 1.23912 26582 ft 394 kts 309°
2026-05-07 20:01 50.58667 1.20747 26179 ft 392 kts 311°
2026-05-07 20:01 50.60557 1.17670 25772 ft 390 kts 312°
2026-05-07 20:01 50.62472 1.14654 25371 ft 388 kts 313°
2026-05-07 20:02 50.64382 1.11684 24993 ft 385 kts 313°
2026-05-07 20:02 50.66289 1.08722 24602 ft 383 kts 313°
2026-05-07 20:02 50.68179 1.05776 24222 ft 380 kts 313°
2026-05-07 20:02 50.70044 1.02842 23840 ft 378 kts 312°
2026-05-07 20:03 50.71874 0.99945 23443 ft 376 kts 312°
2026-05-07 20:03 50.73708 0.97025 22994 ft 374 kts 312°
2026-05-07 20:03 50.75530 0.94117 22559 ft 371 kts 312°
2026-05-07 20:03 50.77349 0.91214 22128 ft 370 kts 312°
2026-05-07 20:04 50.79154 0.88335 21701 ft 368 kts 312°
2026-05-07 20:04 50.80950 0.85471 21280 ft 366 kts 312°
2026-05-07 20:04 50.82734 0.82619 20862 ft 363 kts 312°
2026-05-07 20:04 50.84504 0.79783 20459 ft 361 kts 312°
2026-05-07 20:05 50.86265 0.76964 20055 ft 359 kts 312°
2026-05-07 20:05 50.88020 0.74155 19671 ft 357 kts 312°
2026-05-07 20:05 50.89759 0.71365 19257 ft 355 kts 312°
2026-05-07 20:05 50.91492 0.68578 18848 ft 353 kts 312°
2026-05-07 20:06 50.93214 0.65803 18442 ft 352 kts 312°
2026-05-07 20:06 50.94922 0.63042 18001 ft 350 kts 312°
2026-05-07 20:06 50.96624 0.60289 17514 ft 348 kts 312°
2026-05-07 20:06 50.98315 0.57556 17013 ft 346 kts 312°
2026-05-07 20:07 51.00001 0.54831 16519 ft 344 kts 312°
2026-05-07 20:07 51.01673 0.52126 16036 ft 343 kts 312°
2026-05-07 20:07 51.03319 0.49456 15555 ft 341 kts 312°
2026-05-07 20:07 51.04973 0.46769 15096 ft 339 kts 312°
2026-05-07 20:08 51.06624 0.44087 14631 ft 338 kts 312°
2026-05-07 20:08 51.08303 0.41417 13800 ft 348 kts 314°
2026-05-07 20:08 51.09995 0.38818 13050 ft 354 kts 315°
2026-05-07 20:08 51.11771 0.36141 12572 ft 348 kts 315°
2026-05-07 20:09 51.13514 0.33526 11822 ft 340 kts 315°
2026-05-07 20:09 51.15202 0.30983 11326 ft 325 kts 315°
2026-05-07 20:09 51.16796 0.28567 11202 ft 310 kts 314°
2026-05-07 20:10 51.19824 0.23944 10863 ft 295 kts 314°
2026-05-07 20:10 51.21288 0.21695 10477 ft 296 kts 314°
2026-05-07 20:10 51.22748 0.19450 10099 ft 289 kts 314°
2026-05-07 20:10 51.24176 0.17249 9854 ft 285 kts 314°
2026-05-07 20:11 51.25608 0.15042 9442 ft 286 kts 314°
2026-05-07 20:11 51.27042 0.12833 9121 ft 284 kts 314°
2026-05-07 20:11 51.28451 0.10656 8870 ft 280 kts 314°
2026-05-07 20:11 51.29851 0.08490 8557 ft 279 kts 315°
2026-05-07 20:12 51.31238 0.06327 8238 ft 277 kts 314°
2026-05-07 20:12 51.32607 0.04173 8018 ft 275 kts 314°
2026-05-07 20:12 51.33875 0.01877 8085 ft 276 kts 299°
2026-05-07 20:12 51.34489 -0.01012 8081 ft 276 kts 279°
2026-05-07 20:13 51.34756 -0.03997 8075 ft 274 kts 276°
2026-05-07 20:13 51.34990 -0.07059 8077 ft 274 kts 276°
2026-05-07 20:13 51.35212 -0.10034 8039 ft 274 kts 276°
2026-05-07 20:13 51.35441 -0.13129 7407 ft 285 kts 276°
2026-05-07 20:14 51.35672 -0.16280 7125 ft 281 kts 276°
2026-05-07 20:14 51.35895 -0.19312 7075 ft 270 kts 276°
2026-05-07 20:14 51.36114 -0.22301 7079 ft 269 kts 276°
2026-05-07 20:14 51.36326 -0.25204 7077 ft 254 kts 276°
2026-05-07 20:15 51.36524 -0.27929 7080 ft 241 kts 276°
2026-05-07 20:15 51.36715 -0.30583 7085 ft 240 kts 276°
2026-05-07 20:15 51.36907 -0.33218 7083 ft 238 kts 276°
2026-05-07 20:15 51.37099 -0.35861 7083 ft 239 kts 276°
2026-05-07 20:16 51.37289 -0.38509 7083 ft 239 kts 276°
2026-05-07 20:16 51.37478 -0.41156 7083 ft 239 kts 276°
2026-05-07 20:16 51.37666 -0.43805 7084 ft 240 kts 276°
2026-05-07 20:16 51.37853 -0.46454 7084 ft 239 kts 276°
2026-05-07 20:17 51.38045 -0.49101 7084 ft 238 kts 276°
2026-05-07 20:17 51.38235 -0.51732 7084 ft 239 kts 276°
2026-05-07 20:17 51.38424 -0.54386 7084 ft 239 kts 276°
2026-05-07 20:17 51.38613 -0.57031 7083 ft 239 kts 276°
2026-05-07 20:18 51.38610 -0.59688 6984 ft 239 kts 263°
2026-05-07 20:18 51.38395 -0.62274 6736 ft 237 kts 261°
2026-05-07 20:18 51.38146 -0.64895 6486 ft 238 kts 261°
2026-05-07 20:18 51.37917 -0.67280 6247 ft 238 kts 261°
2026-05-07 20:19 51.37737 -0.69320 6042 ft 238 kts 266°
2026-05-07 20:19 51.37702 -0.71973 5782 ft 238 kts 270°
2026-05-07 20:19 51.37728 -0.74622 5522 ft 238 kts 271°
2026-05-07 20:19 51.37762 -0.77278 5264 ft 238 kts 271°
2026-05-07 20:20 51.37796 -0.79930 5044 ft 238 kts 271°
2026-05-07 20:20 51.37829 -0.82596 4739 ft 240 kts 271°
2026-05-07 20:20 51.37874 -0.85254 4420 ft 239 kts 275°
2026-05-07 20:20 51.38410 -0.87729 4098 ft 236 kts 307°
2026-05-07 20:21 51.39676 -0.89303 3986 ft 232 kts 342°
2026-05-07 20:21 51.41003 -0.89578 3991 ft 231 kts
2026-05-07 20:21 51.42458 -0.88604 3998 ft 228 kts 42°
2026-05-07 20:21 51.43454 -0.86635 3860 ft 227 kts 59°
2026-05-07 20:22 51.44269 -0.84470 3654 ft 226 kts 61°
2026-05-07 20:22 51.45058 -0.82291 3456 ft 226 kts 61°
2026-05-07 20:22 51.45840 -0.80126 3248 ft 222 kts 61°
2026-05-07 20:22 51.46595 -0.78045 3060 ft 208 kts 61°
2026-05-07 20:23 51.47294 -0.76104 3019 ft 193 kts 64°
2026-05-07 20:23 51.47618 -0.74085 3014 ft 185 kts 89°
2026-05-07 20:23 51.47629 -0.72025 2939 ft 182 kts 90°
2026-05-07 20:23 51.47641 -0.70067 2752 ft 170 kts 90°
2026-05-07 20:24 51.47651 -0.68209 2553 ft 165 kts 91°
2026-05-07 20:24 51.47661 -0.66407 2337 ft 163 kts 91°
2026-05-07 20:24 51.47671 -0.64603 2122 ft 162 kts 92°
2026-05-07 20:24 51.47681 -0.62798 1904 ft 162 kts 91°
2026-05-07 20:25 51.47690 -0.60991 1678 ft 163 kts 91°
2026-05-07 20:25 51.47698 -0.59233 1494 ft 150 kts 90°
2026-05-07 20:25 51.47709 -0.57599 1272 ft 143 kts 89°
2026-05-07 20:25 51.47734 -0.56008 1058 ft 141 kts 89°
2026-05-07 20:26 51.47741 -0.54442 853 ft 139 kts 89°
2026-05-07 20:26 51.47749 -0.52897 688 ft 138 kts 89°
2026-05-07 20:26 51.47754 -0.51367 499 ft 136 kts 89°
2026-05-07 20:26 51.47756 -0.49859 315 ft 134 kts 93°
2026-05-07 20:27 51.47754 -0.48364 143 ft 134 kts 92°
2026-05-07 20:27 51.47755 -0.46966 92 ft 108 kts 90°
2026-05-07 20:27 51.47758 -0.46036 87 ft 59 kts 89°
2026-05-07 20:27 51.47760 -0.45586 85 ft 28 kts 91°
2026-05-07 20:28 51.47667 -0.45468 86 ft 15 kts 179°
2026-05-07 20:28 51.47613 -0.45478 90 ft 1 kts 205°
2026-05-07 20:28 51.47608 -0.45482 89 ft 0 kts 206°
2026-05-07 20:29 51.47607 -0.45483 89 ft 1 kts 206°
2026-05-07 20:29 51.47556 -0.45467 88 ft 15 kts 177°
2026-05-07 20:30 51.47509 -0.45604 90 ft 17 kts 271°
2026-05-07 20:30 51.47515 -0.45805 86 ft 19 kts 275°
2026-05-07 20:30 51.47518 -0.46021 86 ft 20 kts 270°
2026-05-07 20:30 51.47518 -0.46258 86 ft 22 kts 267°
2026-05-07 20:31 51.47516 -0.46513 86 ft 23 kts 269°
2026-05-07 20:31 51.47506 -0.46743 89 ft 16 kts 242°
2026-05-07 20:31 51.47495 -0.46917 86 ft 17 kts 271°
2026-05-07 20:31 51.47492 -0.47119 86 ft 19 kts 269°
2026-05-07 20:32 51.47489 -0.47350 86 ft 22 kts 269°
2026-05-07 20:32 51.47492 -0.47599 86 ft 23 kts 271°
2026-05-07 20:32 51.47491 -0.47860 86 ft 24 kts 268°
2026-05-07 20:32 51.47490 -0.48136 87 ft 25 kts 268°
2026-05-07 20:33 51.47469 -0.48362 90 ft 12 kts 219°
2026-05-07 20:33 51.47394 -0.48359 86 ft 12 kts 179°
2026-05-07 20:33 51.47291 -0.48357 87 ft 17 kts 182°
2026-05-07 20:33 51.47174 -0.48357 88 ft 17 kts 180°
2026-05-07 20:34 51.47058 -0.48357 89 ft 17 kts 179°
2026-05-07 20:34 51.46938 -0.48353 86 ft 18 kts 180°
2026-05-07 20:34 51.46877 -0.48477 86 ft 17 kts 270°
2026-05-07 20:34 51.46906 -0.48572 86 ft 9 kts 349°
2026-05-07 20:35 51.46928 -0.48573 86 ft 1 kts 359°
2026-05-07 20:35 51.46931 -0.48573 86 ft 0 kts 359°